{"data":{"norad_id":59778,"epoch":"2026-05-24T21:49:21.671040Z","epoch_age_seconds":96947,"freshness":"FRESH","line1":"1 59778U 24092F   26144.90927860  .00017822  00000+0  49995-3 0  9999","line2":"2 59778  97.6539 277.3031 0007138 223.8680 136.1997 15.36616898112191","mean_motion":15.36616898,"eccentricity":0.0007138,"inclination_deg":97.6539,"raan_deg":277.3031,"arg_perigee_deg":223.868,"mean_anomaly_deg":136.1997,"bstar":0.00049995,"rev_number":11219,"period_min":93.712362650329,"perigee_km":451.24378110905,"apogee_km":461.00036936486,"semimajor_km":6834.259075237,"source":"CELESTRAK","updated_at":"2026-05-25T13:38:01.675466Z"}}